• în Republica Moldova
  • Lista ţărilor
  • Pe 7 zile
  • Temperatura apei
  • Hartă satelitară
  • Meteo pe hartă
  • Widget-uri
  • user-avatar
    Intrare

    Meteo pe oră la Darwin

    Astăzi, 23 Mai, Marţi

    Timp Temperatura Precipitaţii Vânt Presiune Umiditate
    00:00 +28°C° 0 mm 1 m/s 759 mmHg 83%
    01:00 +28°C° 0 mm 2 m/s 759 mmHg 81%
    02:00 +27°C° 0 mm 2 m/s 758 mmHg 80%
    03:00 +27°C° 0 mm 2 m/s 758 mmHg 80%
    04:00 +27°C° 0,2 mm 2 m/s 758 mmHg 79%
    05:00 +27°C° 0,2 mm 3 m/s 758 mmHg 79%
    06:00 +27°C° 0,2 mm 3 m/s 759 mmHg 79%
    07:00 +28°C° 0 mm 4 m/s 759 mmHg 72%
    08:00 +29°C° 0 mm 4 m/s 759 mmHg 65%
    09:00 +32°C° 0 mm 5 m/s 759 mmHg 59%
    10:00 +33°C° 0 mm 5 m/s 759 mmHg 52%
    11:00 +35°C° 0 mm 5 m/s 759 mmHg 45%
    12:00 +37°C° 0 mm 5 m/s 758 mmHg 39%
    13:00 +37°C° 0 mm 5 m/s 758 mmHg 38%
    14:00 +37°C° 0 mm 4 m/s 757 mmHg 37%
    15:00 +38°C° 0 mm 4 m/s 757 mmHg 37%
    16:00 +36°C° 0 mm 4 m/s 757 mmHg 43%
    17:00 +34°C° 0 mm 3 m/s 757 mmHg 50%
    18:00 +31°C° 0 mm 3 m/s 757 mmHg 56%
    19:00 +30°C° 0 mm 3 m/s 757 mmHg 59%
    20:00 +29°C° 0 mm 3 m/s 758 mmHg 62%
    21:00 +28°C° 0 mm 2 m/s 758 mmHg 65%
    22:00 +28°C° 0 mm 2 m/s 758 mmHg 65%
    23:00 +28°C° 0 mm 2 m/s 759 mmHg 65%

    Mâine, 24 Mai, Miercuri

    Timp Temperatura Precipitaţii Vânt Presiune Umiditate
    00:00 +28°C° 0 mm 2 m/s 759 mmHg 66%
    01:00 +28°C° 0 mm 3 m/s 759 mmHg 65%
    02:00 +27°C° 0 mm 3 m/s 758 mmHg 65%
    03:00 +27°C° 0 mm 4 m/s 758 mmHg 64%
    04:00 +27°C° 0 mm 4 m/s 758 mmHg 65%
    05:00 +26°C° 0 mm 4 m/s 758 mmHg 66%
    06:00 +26°C° 0 mm 4 m/s 758 mmHg 66%
    07:00 +27°C° 0 mm 5 m/s 759 mmHg 60%
    08:00 +29°C° 0 mm 6 m/s 759 mmHg 53%
    09:00 +30°C° 0 mm 6 m/s 759 mmHg 46%
    10:00 +33°C° 0 mm 6 m/s 759 mmHg 42%
    11:00 +34°C° 0 mm 6 m/s 759 mmHg 37%
    12:00 +36°C° 0 mm 6 m/s 758 mmHg 33%
    13:00 +36°C° 0 mm 6 m/s 758 mmHg 33%
    14:00 +36°C° 0 mm 5 m/s 757 mmHg 32%
    15:00 +37°C° 0 mm 4 m/s 757 mmHg 32%
    16:00 +35°C° 0 mm 4 m/s 757 mmHg 38%
    17:00 +33°C° 0 mm 3 m/s 757 mmHg 44%
    18:00 +30°C° 0 mm 3 m/s 757 mmHg 51%
    19:00 +29°C° 0 mm 3 m/s 758 mmHg 54%
    20:00 +28°C° 0 mm 3 m/s 758 mmHg 57%
    21:00 +28°C° 0 mm 3 m/s 759 mmHg 60%
    22:00 +27°C° 0 mm 3 m/s 759 mmHg 61%
    23:00 +27°C° 0 mm 3 m/s 759 mmHg 62%

    Poimâine, 25 Mai, Joi

    Timp Temperatura Precipitaţii Vânt Presiune Umiditate
    00:00 +27°C° 0 mm 3 m/s 759 mmHg 63%
    01:00 +27°C° 0 mm 4 m/s 759 mmHg 64%
    02:00 +27°C° 0 mm 4 m/s 758 mmHg 66%
    03:00 +26°C° 0 mm 5 m/s 758 mmHg 68%
    04:00 +26°C° 0 mm 5 m/s 758 mmHg 71%
    05:00 +26°C° 0 mm 5 m/s 758 mmHg 74%
    06:00 +26°C° 0 mm 5 m/s 758 mmHg 76%
    07:00 +27°C° 0 mm 6 m/s 759 mmHg 73%
    08:00 +28°C° 0 mm 6 m/s 759 mmHg 69%
    09:00 +29°C° 0 mm 6 m/s 760 mmHg 66%
    10:00 +32°C° 0 mm 6 m/s 759 mmHg 58%
    11:00 +33°C° 0 mm 5 m/s 759 mmHg 51%
    12:00 +35°C° 0 mm 5 m/s 759 mmHg 44%
    13:00 +36°C° 0 mm 4 m/s 758 mmHg 42%
    14:00 +36°C° 0 mm 4 m/s 757 mmHg 40%
    15:00 +37°C° 0 mm 3 m/s 757 mmHg 39%
    16:00 +35°C° 0 mm 3 m/s 757 mmHg 46%
    17:00 +33°C° 0 mm 3 m/s 757 mmHg 53%
    18:00 +30°C° 0 mm 2 m/s 757 mmHg 60%
    19:00 +29°C° 0 mm 2 m/s 758 mmHg 61%
    20:00 +29°C° 0 mm 2 m/s 758 mmHg 63%
    21:00 +28°C° 0 mm 2 m/s 759 mmHg 64%
    22:00 +29°C° 0,1 mm 2 m/s 759 mmHg 63%
    23:00 +29°C° 0,1 mm 3 m/s 759 mmHg 62%

    26 Mai, Vineri

    Timp Temperatura Precipitaţii Vânt Presiune Umiditate
    00:00 +29°C° 0,1 mm 3 m/s 759 mmHg 60%
    01:00 +29°C° 0,1 mm 4 m/s 759 mmHg 64%
    02:00 +28°C° 0,1 mm 5 m/s 758 mmHg 67%
    03:00 +27°C° 0,1 mm 6 m/s 758 mmHg 70%
    04:00 +27°C° 0 mm 6 m/s 758 mmHg 69%
    05:00 +26°C° 0 mm 6 m/s 758 mmHg 68%
    06:00 +26°C° 0 mm 6 m/s 759 mmHg 67%
    07:00 +27°C° 0 mm 7 m/s 759 mmHg 60%
    08:00 +28°C° 0 mm 7 m/s 759 mmHg 54%
    09:00 +29°C° 0 mm 8 m/s 760 mmHg 47%
    10:00 +32°C° 0 mm 7 m/s 760 mmHg 43%
    11:00 +33°C° 0 mm 7 m/s 759 mmHg 39%
    12:00 +34°C° 0 mm 6 m/s 759 mmHg 35%
    13:00 +35°C° 0 mm 6 m/s 758 mmHg 35%
    14:00 +35°C° 0 mm 5 m/s 757 mmHg 35%
    15:00 +35°C° 0 mm 5 m/s 757 mmHg 35%
    16:00 +34°C° 0 mm 4 m/s 757 mmHg 40%
    17:00 +32°C° 0 mm 4 m/s 757 mmHg 46%
    18:00 +29°C° 0 mm 3 m/s 758 mmHg 52%
    19:00 +29°C° 0 mm 3 m/s 758 mmHg 54%
    20:00 +28°C° 0 mm 3 m/s 759 mmHg 57%
    21:00 +27°C° 0 mm 3 m/s 759 mmHg 59%
    22:00 +28°C° 0 mm 3 m/s 759 mmHg 58%
    23:00 +28°C° 0 mm 4 m/s 759 mmHg 56%

    27 Mai, Sâmbătă

    Timp Temperatura Precipitaţii Vânt Presiune Umiditate
    00:00 +28°C° 0 mm 4 m/s 759 mmHg 55%
    01:00 +27°C° 0 mm 5 m/s 758 mmHg 58%
    02:00 +27°C° 0 mm 5 m/s 758 mmHg 61%
    03:00 +26°C° 0 mm 6 m/s 758 mmHg 64%
    04:00 +26°C° 0 mm 6 m/s 758 mmHg 67%
    05:00 +26°C° 0 mm 6 m/s 758 mmHg 69%
    06:00 +24°C° 0 mm 6 m/s 758 mmHg 71%
    07:00 +26°C° 0 mm 6 m/s 759 mmHg 66%
    08:00 +27°C° 0 mm 7 m/s 759 mmHg 61%
    09:00 +29°C° 0 mm 7 m/s 760 mmHg 55%
    10:00 +30°C° 0 mm 7 m/s 759 mmHg 49%
    11:00 +32°C° 0 mm 6 m/s 759 mmHg 43%
    12:00 +34°C° 0 mm 6 m/s 758 mmHg 37%
    13:00 +34°C° 0 mm 5 m/s 758 mmHg 37%
    14:00 +35°C° 0 mm 5 m/s 757 mmHg 37%
    15:00 +35°C° 0 mm 4 m/s 756 mmHg 37%
    16:00 +33°C° 0 mm 4 m/s 757 mmHg 44%
    17:00 +31°C° 0 mm 3 m/s 757 mmHg 50%
    18:00 +29°C° 0 mm 2 m/s 757 mmHg 56%
    19:00 +28°C° 0 mm 2 m/s 758 mmHg 58%
    20:00 +28°C° 0 mm 2 m/s 758 mmHg 59%
    21:00 +27°C° 0 mm 2 m/s 759 mmHg 60%
    22:00 +28°C° 0 mm 3 m/s 759 mmHg 60%
    23:00 +28°C° 0 mm 4 m/s 759 mmHg 59%

    28 Mai, Duminică

    Timp Temperatura Precipitaţii Vânt Presiune Umiditate
    00:00 +28°C° 0 mm 4 m/s 759 mmHg 59%
    01:00 +27°C° 0 mm 5 m/s 758 mmHg 61%
    02:00 +27°C° 0 mm 5 m/s 758 mmHg 63%
    03:00 +26°C° 0 mm 5 m/s 758 mmHg 64%
    04:00 +26°C° 0 mm 5 m/s 758 mmHg 67%
    05:00 +25°C° 0 mm 5 m/s 759 mmHg 70%
    06:00 +24°C° 0 mm 6 m/s 759 mmHg 73%
    07:00 +26°C° 0 mm 6 m/s 759 mmHg 68%
    08:00 +28°C° 0 mm 6 m/s 760 mmHg 64%
    09:00 +29°C° 0 mm 6 m/s 760 mmHg 59%
    10:00 +30°C° 0 mm 6 m/s 759 mmHg 55%
    11:00 +33°C° 0 mm 6 m/s 759 mmHg 50%
    12:00 +34°C° 0 mm 6 m/s 758 mmHg 45%
    13:00 +35°C° 0 mm 5 m/s 758 mmHg 44%
    14:00 +35°C° 0 mm 5 m/s 757 mmHg 43%
    15:00 +36°C° 0 mm 4 m/s 757 mmHg 42%
    16:00 +34°C° 0 mm 4 m/s 757 mmHg 47%
    17:00 +31°C° 0 mm 3 m/s 757 mmHg 53%
    18:00 +30°C° 0 mm 3 m/s 758 mmHg 59%
    19:00 +29°C° 0 mm 2 m/s 758 mmHg 59%
    20:00 +29°C° 0 mm 2 m/s 759 mmHg 60%
    21:00 +29°C° 0 mm 2 m/s 759 mmHg 60%
    22:00 +29°C° 0 mm 2 m/s 759 mmHg 59%
    23:00 +29°C° 0 mm 2 m/s 759 mmHg 58%
    Arată mai mult